Date String (YYYY-MM-DD hh:mm:ss) UTC,Instrument flags,Ambient pressure (hPa),Sample flow (lpm),Bypass flow (lpm),Sample temperature (°C),Ambient temperature (°C),ASC tube jacket temperature (°C),LED temperature (°C),Box temperature (°C),Sample RH (%),Span deviation,Mass concentration (μg/m³),Mass concentration (μg/m³),Mass concentration (μg/m³)
DateTimeUTC,F1_M11,P_M11,Q1_M11,Q2_M11,T1_M11,T2_M11,T3_M11,T4_M11,T5_M11,U1_M11,ZSPAN_M11,X0_M11,X2_M11,X1_M11
2023-02-08 13:00:00,,0825.1,5.00,0.00,22.3,20.8,00.0,31.2,24.1,07.5,0000.0,0006.02,0002.37,0001.62
2023-02-08 13:01:00,,0825.1,5.00,0.00,22.3,20.7,00.0,31.2,24.0,07.5,0000.0,0005.82,0002.33,0001.61
2023-02-08 13:02:00,,0825.0,5.02,0.00,22.3,20.5,00.0,31.2,23.9,07.5,0000.0,0005.79,0002.33,0001.61
2023-02-08 13:03:00,,0824.9,4.99,0.00,22.2,20.4,00.0,31.2,23.9,07.5,0000.0,0006.66,0002.35,0001.61
2023-02-08 13:04:00,,0824.9,5.00,0.00,22.2,20.3,00.0,31.1,23.8,07.6,0000.0,0006.29,0002.29,0001.60
2023-02-08 13:05:00,,0824.9,5.02,0.00,22.2,20.3,00.0,31.1,23.8,07.6,0000.0,0006.01,0002.22,0001.59
2023-02-08 13:06:00,,0824.9,5.02,0.00,22.1,20.2,00.0,31.1,23.8,07.5,0000.0,0006.03,0002.22,0001.58
2023-02-08 13:07:00,,0824.9,4.99,0.00,22.1,20.4,00.0,31.1,23.8,07.6,0000.0,0005.92,0002.18,0001.58
2023-02-08 13:08:00,,0825.0,5.05,0.00,22.2,21.4,00.0,31.0,24.0,07.6,0000.0,0005.88,0002.17,0001.57
2023-02-08 13:09:00,,0824.9,5.01,0.00,22.3,22.5,00.0,31.0,24.3,07.5,0000.0,0005.87,0002.14,0001.56
2023-02-08 13:10:00,,0824.9,4.97,0.00,22.4,23.0,00.0,31.1,24.4,07.5,0000.0,0005.84,0002.14,0001.57
2023-02-08 13:11:00,,0825.0,5.02,0.00,22.5,22.6,00.0,31.1,24.4,07.5,0000.0,0005.95,0002.16,0001.58
2023-02-08 13:12:00,,0824.9,5.00,0.00,22.5,22.1,00.0,31.2,24.3,07.5,0000.0,0006.00,0002.19,0001.60
2023-02-08 13:13:00,,0824.9,5.05,0.00,22.5,21.8,00.0,31.2,24.2,07.5,0000.0,0005.95,0002.22,0001.60
2023-02-08 13:14:00,,0824.9,4.94,0.00,22.4,21.4,00.0,31.2,24.2,07.5,0000.0,0005.58,0002.25,0001.61
2023-02-08 13:15:00,,0824.9,5.03,0.00,22.4,21.2,00.0,31.2,24.1,07.5,0000.0,0004.16,0002.26,0001.62
2023-02-08 13:16:00,,0824.8,4.98,0.00,22.4,20.9,00.0,31.2,24.0,07.5,0000.0,0004.49,0002.33,0001.64
2023-02-08 13:17:00,,0824.9,5.03,0.00,22.3,20.7,00.0,31.2,23.9,07.6,0000.0,0006.10,0002.36,0001.64
2023-02-08 13:18:00,,0824.9,5.03,0.00,22.3,20.6,00.0,31.2,23.9,07.6,0000.0,0006.07,0002.35,0001.65
2023-02-08 13:19:00,,0824.9,5.02,0.00,22.3,20.5,00.0,31.2,23.9,07.7,0000.0,0006.24,0002.39,0001.65
2023-02-08 13:20:00,,0824.9,5.01,0.00,22.2,20.5,00.0,31.2,23.9,07.8,0000.0,0006.80,0002.37,0001.63
2023-02-08 13:21:00,,0824.9,5.01,0.00,22.2,20.5,00.0,31.2,23.8,07.8,0000.0,0007.15,0002.38,0001.62
2023-02-08 13:22:00,,0824.9,5.02,0.00,22.2,20.6,00.0,31.2,23.8,07.9,0000.0,0007.69,0002.34,0001.59
2023-02-08 13:23:00,,0824.9,4.99,0.00,22.2,20.6,00.0,31.1,23.8,08.2,0000.0,0007.77,0002.34,0001.56
2023-02-08 13:24:00,,0824.9,4.98,0.00,22.2,20.5,00.0,31.1,23.8,08.1,0000.0,0008.18,0002.36,0001.55
2023-02-08 13:25:00,,0824.9,4.98,0.00,22.1,20.5,00.0,31.1,23.8,08.0,0000.0,0008.52,0002.28,0001.52
2023-02-08 13:26:00,,0824.9,4.99,0.00,22.1,20.5,00.0,31.1,23.8,07.9,0000.0,0008.48,0002.27,0001.50
2023-02-08 13:27:00,,0824.9,5.07,0.00,22.2,21.3,00.0,31.0,24.0,07.8,0000.0,0008.55,0002.24,0001.47
2023-02-08 13:28:00,,0824.9,5.01,0.00,22.3,22.4,00.0,31.0,24.2,07.6,0000.0,0008.08,0002.20,0001.48
2023-02-08 13:29:00,,0824.9,5.01,0.00,22.4,22.9,00.0,31.1,24.4,07.6,0000.0,0007.97,0002.21,0001.48
2023-02-08 13:30:00,,0824.9,5.00,0.00,22.4,22.5,00.0,31.1,24.4,07.6,0000.0,0007.92,0002.20,0001.51
2023-02-08 13:31:00,,0824.9,5.05,0.00,22.4,22.1,00.0,31.2,24.3,07.6,0000.0,0007.70,0002.26,0001.53
2023-02-08 13:32:00,,0824.9,5.04,0.00,22.4,21.7,00.0,31.2,24.2,07.6,0000.0,0008.06,0002.28,0001.54
2023-02-08 13:33:00,,0824.8,4.98,0.00,22.4,21.4,00.0,31.2,24.2,07.6,0000.0,0007.65,0002.31,0001.56
2023-02-08 13:34:00,,0824.9,5.04,0.00,22.4,21.2,00.0,31.2,24.1,07.6,0000.0,0007.62,0002.37,0001.58
2023-02-08 13:35:00,,0824.9,5.00,0.00,22.4,21.1,00.0,31.2,24.0,07.6,0000.0,0006.96,0002.33,0001.59
2023-02-08 13:36:00,,0824.8,4.99,0.00,22.4,21.0,00.0,31.2,24.0,07.6,0000.0,0006.61,0002.41,0001.62
2023-02-08 13:37:00,,0824.8,5.00,0.00,22.4,20.9,00.0,31.2,24.0,07.6,0000.0,0006.71,0002.43,0001.64
2023-02-08 13:38:00,,0824.8,5.01,0.00,22.3,20.8,00.0,31.2,24.0,07.6,0000.0,0007.22,0002.46,0001.66
2023-02-08 13:39:00,,0824.7,4.99,0.00,22.3,20.8,00.0,31.2,24.0,07.6,0000.0,0007.55,0002.50,0001.67
2023-02-08 13:40:00,,0824.7,5.03,0.00,22.3,20.8,00.0,31.2,24.0,07.6,0000.0,0007.51,0002.50,0001.67
2023-02-08 13:41:00,,0824.7,4.97,0.00,22.3,20.7,00.0,31.2,23.9,07.6,0000.0,0007.48,0002.48,0001.65
2023-02-08 13:42:00,,0824.6,4.99,0.00,22.3,20.7,00.0,31.2,23.9,07.6,0000.0,0007.30,0002.40,0001.65
2023-02-08 13:43:00,,0824.6,5.00,0.00,22.2,20.6,00.0,31.2,23.9,07.8,0000.0,0006.48,0002.36,0001.64
2023-02-08 13:44:00,,0824.7,5.00,0.00,22.2,20.6,00.0,31.2,23.8,07.8,0000.0,0006.59,0002.35,0001.63
2023-02-08 13:45:00,,0824.7,4.97,0.00,22.2,20.7,00.0,31.1,23.8,08.0,0000.0,0006.48,0002.27,0001.61
2023-02-08 13:46:00,,0824.7,4.94,0.00,22.3,21.6,00.0,31.1,24.1,08.0,0000.0,0006.43,0002.26,0001.59
2023-02-08 13:47:00,,0824.7,4.99,0.00,22.4,22.6,00.0,31.1,24.4,07.8,0000.0,0006.10,0002.16,0001.57
2023-02-08 13:48:00,,0824.7,5.00,0.00,22.5,22.9,00.0,31.1,24.5,07.6,0000.0,0005.91,0002.11,0001.55
2023-02-08 13:49:00,,0824.7,4.98,0.00,22.5,22.4,00.0,31.2,24.4,07.6,0000.0,0005.26,0002.09,0001.54
2023-02-08 13:50:00,,0824.6,4.99,0.00,22.5,22.0,00.0,31.2,24.3,07.6,0000.0,0004.31,0002.03,0001.53
2023-02-08 13:51:00,,0824.6,5.02,0.00,22.5,21.6,00.0,31.2,24.3,07.5,0000.0,0004.39,0002.06,0001.52
2023-02-08 13:52:00,,0824.7,4.99,0.00,22.5,21.4,00.0,31.2,24.2,07.6,0000.0,0004.53,0002.12,0001.53
2023-02-08 13:53:00,,0824.7,5.01,0.00,22.5,21.2,00.0,31.3,24.2,07.6,0000.0,0004.55,0002.14,0001.52
2023-02-08 13:54:00,,0824.6,5.02,0.00,22.5,21.1,00.0,31.3,24.2,07.6,0000.0,0004.36,0002.11,0001.52
2023-02-08 13:55:00,,0824.6,4.99,0.00,22.5,21.1,00.0,31.3,24.2,07.6,0000.0,0003.83,0002.09,0001.53
2023-02-08 13:56:00,,0824.7,4.98,0.00,22.4,21.1,00.0,31.3,24.2,07.7,0000.0,0004.33,0002.13,0001.54
2023-02-08 13:57:00,,0824.7,5.01,0.00,22.4,21.1,00.0,31.3,24.1,07.8,0000.0,0004.41,0002.12,0001.54
2023-02-08 13:58:00,,0824.7,5.01,0.00,22.4,21.1,00.0,31.3,24.1,07.9,0000.0,0004.66,0002.18,0001.53
2023-02-08 13:59:00,,0824.6,5.01,0.00,22.4,21.0,00.0,31.3,24.1,08.0,0000.0,0004.76,0002.21,0001.51
